Weather History for KMAN - October, 2011

Change the Weather History Date:

Tuesday, October 18, 2011

  Actual Average (KBOI) Record (KBOI)
Temperature  
Mean Temperature 48 °F 52 °F  
Max Temperature 64 °F 64 °F 82 °F (2003)
Min Temperature 33 °F 40 °F 22 °F (1984)
Degree Days  
Heating Degree Days 16 13  
Month to date heating degree days 179  
Since 1 July heating degree days 300  
Cooling Degree Days 0 0  
Month to date cooling degree days 7  
Year to date cooling degree days 941  
Moisture  
Dew Point 37 °F    
Average Humidity 73    
Maximum Humidity 100    
Minimum Humidity 34    
Precipitation  
Precipitation 0.00 in 0.03 in 1.06 in (1899)
Month to date precipitation 0.39  
Year to date precipitation 8.47  
Snow  
Snow 0.00 in 0.00 in 0.10 in (1905)
Month to date snowfall 0.0  
Since 1 July snowfall 0.0  
Snow Depth -    
Sea Level Pressure  
Sea Level Pressure 30.32 in    
Wind  
Wind Speed 3 mph (SE)    
Max Wind Speed 12 mph    
Max Gust Speed 17 mph    
Visibility 9 miles    
Events      
T = Trace of Precipitation, MM = Missing Value Source: NWS Daily Summary

Daily Weather History Graph

Daily Weather History Graph

Search for Another Location

Airport or City:

Trip Planner

Search our weather history database for the weather conditions in past years. The results will help you decide how hot, cold, wet, or windy it might be!

Date:

Astronomy

Oct. 18, 2011 Rise Set
Actual Time 8:03 AM MDT 6:58 PM MDT
Civil Twilight 7:34 AM MDT 7:27 PM MDT
Nautical Twilight 7:01 AM MDT 8:00 PM MDT
Astronomical Twilight 6:28 AM MDT 8:33 PM MDT
Moon 11:37 PM MDT (10/18) 2:04 PM MDT (10/18)
Length of Visible Light 11h 52m
Length of Day
10h 54m
Waning Gibbous, 64% of the Moon is Illuminated
Oct 18
Waning Gibbous
Oct 19
Last Quarter
Oct 26
New
Nov 2
First Quarter
Nov 10
Full

Hourly Weather History & Observations

Time (MDT) Temp. Windchill Dew Point Humidity Pressure Visibility Wind Dir Wind Speed Gust Speed Precip Events Conditions
12:15 AM 39.2 °F - 39.2 °F 100% 30.36 in 8.0 mi Calm Calm - N/A   Clear
12:35 AM 37.4 °F - 37.4 °F 100% 30.36 in 7.0 mi Calm Calm - N/A   Clear
12:55 AM 37.4 °F 34.9 °F 37.4 °F 100% 30.36 in 8.0 mi SSE 3.5 mph - N/A   Clear
1:15 AM 37.4 °F 34.9 °F 37.4 °F 100% 30.36 in 8.0 mi SE 3.5 mph - N/A   Clear
1:35 AM 37.4 °F - 37.4 °F 100% 30.36 in 7.0 mi Calm Calm - N/A   Clear
1:55 AM 37.4 °F - 37.4 °F 100% 30.37 in 6.0 mi Calm Calm - N/A   Clear
2:15 AM 39.2 °F 37.0 °F 39.2 °F 100% 30.36 in 8.0 mi East 3.5 mph - N/A   Clear
2:35 AM 37.4 °F - 37.4 °F 100% 30.37 in 7.0 mi Calm Calm - N/A   Clear
2:55 AM 35.6 °F - 35.6 °F 100% 30.37 in 8.0 mi Calm Calm - N/A   Clear
3:15 AM 35.6 °F - 35.6 °F 100% 30.37 in 10.0 mi Calm Calm - N/A   Clear
3:35 AM 37.4 °F - 37.4 °F 100% 30.37 in 10.0 mi Calm Calm - N/A   Clear
3:55 AM 35.6 °F - 35.6 °F 100% 30.37 in 6.0 mi Calm Calm - N/A   Clear
4:15 AM 35.6 °F - 35.6 °F 100% 30.37 in 6.0 mi Calm Calm - N/A   Clear
4:35 AM 33.8 °F 30.8 °F 33.8 °F 100% 30.37 in 7.0 mi East 3.5 mph - N/A   Clear
4:55 AM 33.8 °F 30.8 °F 33.8 °F 100% 30.37 in 7.0 mi ESE 3.5 mph - N/A   Clear
5:15 AM 33.8 °F - 33.8 °F 100% 30.37 in 8.0 mi Calm Calm - N/A   Clear
5:35 AM 33.8 °F 29.6 °F 33.8 °F 100% 30.37 in 6.0 mi SE 4.6 mph - N/A   Clear
5:55 AM 35.6 °F 32.8 °F 35.6 °F 100% 30.38 in 10.0 mi SE 3.5 mph - N/A   Clear
6:15 AM 33.8 °F 30.8 °F 33.8 °F 100% 30.38 in 10.0 mi SE 3.5 mph - N/A   Clear
6:35 AM 35.6 °F 32.8 °F 35.6 °F 100% 30.38 in 10.0 mi SE 3.5 mph - N/A   Clear
6:55 AM 33.8 °F 30.8 °F 33.8 °F 100% 30.38 in 10.0 mi SE 3.5 mph - N/A   Clear
7:15 AM 35.6 °F 31.7 °F 35.6 °F 100% 30.38 in 10.0 mi SE 4.6 mph - N/A   Clear
7:35 AM 35.6 °F 31.7 °F 35.6 °F 100% 30.38 in 10.0 mi SE 4.6 mph - N/A   Clear
7:55 AM 37.4 °F 32.1 °F 35.6 °F 93% 30.38 in 9.0 mi SE 6.9 mph - N/A   Clear
8:15 AM 37.4 °F 32.1 °F 35.6 °F 93% 30.38 in 9.0 mi SE 6.9 mph - N/A   Clear
8:35 AM 37.4 °F 32.1 °F 37.4 °F 100% 30.39 in 10.0 mi SSE 6.9 mph - N/A   Clear
8:55 AM 39.2 °F 35.9 °F 37.4 °F 93% 30.39 in 10.0 mi SE 4.6 mph - N/A   Clear
9:15 AM 41.0 °F 36.4 °F 37.4 °F 87% 30.40 in 10.0 mi SE 6.9 mph - N/A   Clear
9:35 AM 42.8 °F 38.6 °F 39.2 °F 87% 30.40 in 10.0 mi SE 6.9 mph - N/A   Clear
9:55 AM 44.6 °F 40.2 °F 39.2 °F 81% 30.40 in 10.0 mi SE 8.1 mph - N/A   Clear
10:15 AM 46.4 °F 42.4 °F 39.2 °F 76% 30.40 in 10.0 mi SSE 8.1 mph - N/A   Clear
10:35 AM 46.4 °F 42.4 °F 41.0 °F 81% 30.40 in 10.0 mi SSE 8.1 mph - N/A   Clear
10:55 AM 48.2 °F - 41.0 °F 76% 30.40 in 10.0 mi SSE 5.8 mph - N/A   Clear
11:15 AM 50.0 °F - 41.0 °F 71% 30.39 in 10.0 mi SSE 6.9 mph - N/A   Clear
11:35 AM 53.6 °F - 41.0 °F 62% 30.39 in 10.0 mi SSE 8.1 mph - N/A   Clear
11:55 AM 53.6 °F - 42.8 °F 67% 30.38 in 10.0 mi SSE 5.8 mph - N/A   Clear
12:15 PM 55.4 °F - 44.6 °F 67% 30.37 in 10.0 mi SE 5.8 mph - N/A   Clear
12:35 PM 59.0 °F - 41.0 °F 51% 30.36 in 10.0 mi SE 11.5 mph 17.3 mph N/A   Clear
12:55 PM 59.0 °F - 41.0 °F 51% 30.36 in 10.0 mi SE 9.2 mph - N/A   Clear
1:15 PM 59.0 °F - 39.2 °F 48% 30.34 in 10.0 mi SE 10.4 mph - N/A   Clear
1:35 PM 60.8 °F - 39.2 °F 45% 30.33 in 10.0 mi SSE 10.4 mph - N/A   Clear
1:55 PM 62.6 °F - 37.4 °F 39% 30.32 in 10.0 mi SE 10.4 mph - N/A   Clear
2:15 PM 62.6 °F - 37.4 °F 39% 30.31 in 10.0 mi SE 8.1 mph - N/A   Clear
2:35 PM 62.6 °F - 37.4 °F 39% 30.30 in 10.0 mi SSE 9.2 mph - N/A   Clear
3:15 PM 64.4 °F - 37.4 °F 37% 30.28 in 10.0 mi SE 11.5 mph - N/A   Clear
3:35 PM 64.4 °F - 37.4 °F 37% 30.27 in 10.0 mi SSE 9.2 mph - N/A   Clear
3:55 PM 64.4 °F - 37.4 °F 37% 30.26 in 10.0 mi SE 5.8 mph - N/A   Clear
4:15 PM 64.4 °F - 35.6 °F 34% 30.25 in 10.0 mi SSE 6.9 mph - N/A   Clear
4:35 PM 64.4 °F - 35.6 °F 34% 30.24 in 10.0 mi South 8.1 mph - N/A   Clear
4:55 PM 64.4 °F - 35.6 °F 34% 30.23 in 10.0 mi SSE 5.8 mph - N/A   Clear
5:15 PM 64.4 °F - 37.4 °F 37% 30.22 in 10.0 mi SSW 3.5 mph - N/A   Clear
5:35 PM 62.6 °F - 39.2 °F 42% 30.21 in 10.0 mi SSW 5.8 mph - N/A   Clear
5:55 PM 62.6 °F - 37.4 °F 39% 30.20 in 10.0 mi SSW 5.8 mph - N/A   Clear
6:15 PM 62.6 °F - 35.6 °F 37% 30.19 in 10.0 mi South 4.6 mph - N/A   Clear
6:35 PM 60.8 °F - 37.4 °F 42% 30.18 in 10.0 mi Calm Calm - N/A   Clear
6:55 PM 59.0 °F - 39.2 °F 48% 30.17 in 10.0 mi Calm Calm - N/A   Clear
7:15 PM 57.2 °F - 39.2 °F 51% 30.17 in 10.0 mi Calm Calm - N/A   Clear
7:35 PM 53.6 °F - 39.2 °F 58% 30.17 in 10.0 mi Calm Calm - N/A   Clear
7:55 PM 53.6 °F - 39.2 °F 58% 30.16 in 9.0 mi East 4.6 mph - N/A   Clear
8:15 PM 53.6 °F - 35.6 °F 51% 30.16 in 10.0 mi ESE 4.6 mph - N/A   Clear
8:35 PM 51.8 °F - 35.6 °F 54% 30.15 in 10.0 mi East 5.8 mph - N/A   Clear
8:55 PM 50.0 °F - 35.6 °F 58% 30.14 in 10.0 mi East 8.1 mph - N/A   Clear
9:15 PM 50.0 °F - 35.6 °F 58% 30.14 in 10.0 mi East 5.8 mph - N/A   Clear
9:35 PM 50.0 °F - 35.6 °F 58% 30.13 in 10.0 mi East 5.8 mph - N/A   Clear
9:55 PM 46.4 °F 45.2 °F 37.4 °F 71% 30.14 in 10.0 mi SSE 3.5 mph - N/A   Clear
10:15 PM 44.6 °F 42.2 °F 37.4 °F 76% 30.13 in 10.0 mi SE 4.6 mph - N/A   Clear
10:55 PM 44.6 °F 42.2 °F 37.4 °F 76% 30.12 in 10.0 mi East 4.6 mph - N/A   Clear
11:15 PM 44.6 °F 41.4 °F 37.4 °F 76% 30.12 in 10.0 mi ESE 5.8 mph - N/A   Clear
11:35 PM 44.6 °F 40.7 °F 37.4 °F 76% 30.11 in 10.0 mi ESE 6.9 mph - N/A   Clear
11:55 PM 44.6 °F 42.2 °F 37.4 °F 76% 30.10 in 10.0 mi SE 4.6 mph - N/A   Clear